Change the Weather History Date:

Monday, May 27, 2013

  Actual Average Record
Temperature  
Mean Temperature 82 °F -  
Max Temperature 97 °F 96 °F 110 °F (1951)
Min Temperature 70 °F 65 °F 53 °F (1962)
Cooling Degree Days 18    
Growing Degree Days 32 (Base 50)    
Moisture  
Dew Point 39 °F    
Average Humidity 23    
Maximum Humidity 35    
Minimum Humidity 12    
Precipitation  
Precipitation 0.00 in - - ()
Sea Level Pressure  
Sea Level Pressure 29.75 in    
Wind  
Wind Speed 10 mph (West)    
Max Wind Speed 16 mph    
Max Gust Speed 21 mph    
Visibility 10 miles    
Events      
Averages and records for this station are not official NWS values.
T = Trace of Precipitation, MM = Missing Value Source: NWS Daily Summary

Daily Weather History Graph

Daily Weather History Graph

Search for Another Location

Airport or City:

Trip Planner

Search our weather history database for the weather conditions in past years. The results will help you decide how hot, cold, wet, or windy it might be!

Date:

Astronomy

May. 27, 2013 Rise Set
Actual Time 5:36 AM PDT 7:42 PM PDT
Civil Twilight 5:08 AM PDT 8:10 PM PDT
Nautical Twilight 4:34 AM PDT 8:44 PM PDT
Astronomical Twilight 3:58 AM PDT 9:21 PM PDT
Moon 10:29 PM PDT 8:16 AM PDT
Length of Visible Light 15h 02m
Length of Day
14h 06m
Waning Gibbous, 90% of the Moon is Illuminated
May 27
Waning Gibbous
May 31
Last Quarter
Jun 8
New
Jun 16
First Quarter
Jun 23
Full

Hourly Weather History & Observations

Time (PDT) Temp. Dew Point Humidity Pressure Visibility Wind Dir Wind Speed Gust Speed Precip Events Conditions
12:53 AM 73.0 °F 36.0 °F 26% 29.82 in 10.0 mi West 13.8 mph - N/A   Clear
1:53 AM 73.9 °F 35.1 °F 24% 29.81 in 10.0 mi West 11.5 mph - N/A   Clear
2:53 AM 73.9 °F 35.1 °F 24% 29.80 in 10.0 mi West 16.1 mph - N/A   Clear
3:53 AM 73.0 °F 36.0 °F 26% 29.80 in 10.0 mi West 12.7 mph - N/A   Clear
4:53 AM 73.0 °F 36.0 °F 26% 29.80 in 10.0 mi West 11.5 mph - N/A   Clear
5:53 AM 72.0 °F 36.0 °F 27% 29.80 in 10.0 mi West 9.2 mph - N/A   Clear
6:53 AM 70.0 °F 39.9 °F 33% 29.81 in 10.0 mi WSW 3.5 mph - N/A   Clear
7:53 AM 73.0 °F 39.9 °F 30% 29.81 in 10.0 mi NW 3.5 mph - N/A   Clear
8:53 AM 79.0 °F 41.0 °F 26% 29.82 in 10.0 mi WNW 4.6 mph - N/A   Clear
9:53 AM 82.9 °F 42.1 °F 24% 29.81 in 10.0 mi WNW 8.1 mph - N/A   Clear
10:53 AM 87.1 °F 41.0 °F 20% 29.81 in 10.0 mi WNW 4.6 mph - N/A   Clear
11:53 AM 89.1 °F 43.0 °F 20% 29.80 in 10.0 mi North 4.6 mph - N/A   Clear
12:53 PM 90.0 °F 37.0 °F 15% 29.78 in 10.0 mi North 9.2 mph - N/A   Clear
1:53 PM 93.0 °F 39.0 °F 15% 29.76 in 10.0 mi Variable 6.9 mph - N/A   Clear
2:53 PM 93.0 °F 34.0 °F 12% 29.73 in 10.0 mi Calm Calm - N/A   Clear
3:53 PM 93.9 °F 35.1 °F 13% 29.69 in 10.0 mi Calm Calm - N/A   Clear
4:53 PM 95.0 °F 36.0 °F 13% 29.67 in 10.0 mi Variable 3.5 mph - N/A   Clear
5:53 PM 93.9 °F 37.9 °F 14% 29.65 in 10.0 mi SE 4.6 mph - N/A   Clear
6:53 PM 91.9 °F 43.0 °F 18% 29.66 in 10.0 mi West 13.8 mph 20.7 mph N/A   Clear
7:53 PM 84.0 °F 43.0 °F 24% 29.67 in 10.0 mi WSW 8.1 mph - N/A   Clear
8:53 PM 81.0 °F 44.1 °F 27% 29.68 in 10.0 mi West 16.1 mph - N/A   Clear
9:53 PM 78.1 °F 44.1 °F 30% 29.70 in 10.0 mi WSW 13.8 mph - N/A   Clear
10:53 PM 75.0 °F 45.0 °F 34% 29.70 in 10.0 mi West 11.5 mph - N/A   Clear
11:53 PM 73.0 °F 44.1 °F 35% 29.68 in 10.0 mi West 9.2 mph - N/A   Clear